When you browse on this site, cookies collect data to enhance your experience and personalize the content and advertising you see.
Visit our Privacy Policy to learn more. By continuing to use the site, you agree to this use of cookies and data.
  • In Hungary
  • List of Countries
  • For 7 days
  • Water Temperature
  • Satellite Maps
  • Weather Map
  • News
  • Weather Widgets
  • user-avatar
    Login

    Hourly Weather Kyzylbulak

    Today, 11 December, Tuesday

    Time Temperature Precipitation Wind Pressure Humidity
    00:00 -9°C° 0 mm 2 mps 759 mmHg 89%
    01:00 -10°C° 0 mm 2 mps 759 mmHg 88%
    02:00 -10°C° 0 mm 2 mps 759 mmHg 87%
    03:00 -10°C° 0 mm 2 mps 759 mmHg 86%
    04:00 -12°C° 0 mm 2 mps 759 mmHg 82%
    05:00 -12°C° 0 mm 2 mps 759 mmHg 80%
    06:00 -12°C° 0 mm 2 mps 759 mmHg 79%
    07:00 -12°C° 0 mm 2 mps 759 mmHg 77%
    08:00 -13°C° 0 mm 3 mps 759 mmHg 77%
    09:00 -12°C° 0 mm 3 mps 759 mmHg 77%
    10:00 -12°C° 0 mm 3 mps 759 mmHg 77%
    11:00 -10°C° 0 mm 3 mps 759 mmHg 78%
    12:00 -9°C° 0 mm 3 mps 759 mmHg 78%
    13:00 -8°C° 0 mm 3 mps 759 mmHg 78%
    14:00 -9°C° 0 mm 3 mps 759 mmHg 78%
    15:00 -9°C° 0 mm 3 mps 759 mmHg 78%
    16:00 -10°C° 0 mm 3 mps 759 mmHg 75%
    17:00 -10°C° 0 mm 3 mps 759 mmHg 75%
    18:00 -10°C° 0 mm 3 mps 759 mmHg 75%
    19:00 -11°C° 0 mm 4 mps 759 mmHg 75%
    20:00 -11°C° 0 mm 4 mps 759 mmHg 75%
    21:00 -10°C° 0 mm 4 mps 759 mmHg 75%
    22:00 -10°C° 0 mm 4 mps 758 mmHg 75%
    23:00 -10°C° 0 mm 4 mps 758 mmHg 75%

    Tomorrow, 12 December, Wednesday

    Time Temperature Precipitation Wind Pressure Humidity
    00:00 -10°C° 0 mm 4 mps 758 mmHg 74%
    01:00 -10°C° 0 mm 4 mps 758 mmHg 74%
    02:00 -10°C° 0 mm 4 mps 758 mmHg 75%
    03:00 -10°C° 0 mm 4 mps 758 mmHg 75%
    04:00 -10°C° 0 mm 4 mps 758 mmHg 75%
    05:00 -10°C° 0 mm 4 mps 758 mmHg 75%
    06:00 -10°C° 0 mm 4 mps 758 mmHg 75%
    07:00 -10°C° 0 mm 4 mps 758 mmHg 75%
    08:00 -10°C° 0 mm 4 mps 758 mmHg 75%
    09:00 -10°C° 0 mm 5 mps 758 mmHg 75%
    10:00 -10°C° 0 mm 5 mps 758 mmHg 74%
    11:00 -8°C° 0 mm 5 mps 758 mmHg 75%
    12:00 -8°C° 0 mm 5 mps 757 mmHg 75%
    13:00 -7°C° 0 mm 5 mps 757 mmHg 75%
    14:00 -7°C° 0 mm 5 mps 757 mmHg 76%
    15:00 -7°C° 0 mm 5 mps 757 mmHg 76%
    16:00 -8°C° 0 mm 5 mps 757 mmHg 77%
    17:00 -8°C° 0 mm 5 mps 757 mmHg 76%
    18:00 -8°C° 0 mm 5 mps 757 mmHg 75%
    19:00 -8°C° 0 mm 5 mps 757 mmHg 75%
    20:00 -8°C° 0 mm 5 mps 757 mmHg 75%
    21:00 -8°C° 0 mm 5 mps 757 mmHg 75%
    22:00 -8°C° 0 mm 5 mps 757 mmHg 75%
    23:00 -8°C° 0 mm 5 mps 756 mmHg 76%

    Day after tomorrow, 13 December, Thursday

    Time Temperature Precipitation Wind Pressure Humidity
    00:00 -7°C° 0 mm 5 mps 756 mmHg 77%
    01:00 -7°C° 0 mm 5 mps 756 mmHg 77%
    02:00 -7°C° 0 mm 5 mps 756 mmHg 78%
    03:00 -7°C° 0 mm 5 mps 756 mmHg 79%
    04:00 -7°C° 0 mm 5 mps 756 mmHg 80%
    05:00 -7°C° 0 mm 5 mps 756 mmHg 80%
    06:00 -7°C° 0 mm 5 mps 756 mmHg 80%
    07:00 -7°C° 0 mm 5 mps 756 mmHg 80%
    08:00 -7°C° 0 mm 5 mps 756 mmHg 79%
    09:00 -7°C° 0 mm 5 mps 756 mmHg 79%
    10:00 -6°C° 0 mm 5 mps 756 mmHg 79%
    11:00 -6°C° 0 mm 5 mps 756 mmHg 79%
    12:00 -6°C° 0 mm 5 mps 755 mmHg 79%
    13:00 -5°C° 0 mm 5 mps 755 mmHg 79%
    14:00 -5°C° 0 mm 5 mps 755 mmHg 80%
    15:00 -6°C° 0 mm 5 mps 755 mmHg 82%
    16:00 -6°C° 0 mm 5 mps 755 mmHg 83%
    17:00 -6°C° 0.4 mm 5 mps 755 mmHg 86%
    18:00 -6°C° 0.4 mm 6 mps 755 mmHg 89%
    19:00 -6°C° 0.4 mm 6 mps 755 mmHg 92%
    20:00 -6°C° 0.1 mm 6 mps 755 mmHg 91%
    21:00 -6°C° 0.1 mm 6 mps 755 mmHg 90%
    22:00 -6°C° 0.1 mm 6 mps 755 mmHg 89%
    23:00 -7°C° 0.2 mm 7 mps 754 mmHg 89%

    14 December, Friday

    Time Temperature Precipitation Wind Pressure Humidity
    00:00 -7°C° 0.2 mm 7 mps 754 mmHg 89%
    01:00 -7°C° 0.2 mm 7 mps 754 mmHg 89%
    02:00 -7°C° 0.1 mm 7 mps 754 mmHg 88%
    03:00 -7°C° 0.1 mm 8 mps 754 mmHg 88%
    04:00 -7°C° 0.1 mm 8 mps 753 mmHg 88%
    05:00 -7°C° 0.3 mm 8 mps 753 mmHg 88%
    06:00 -6°C° 0.3 mm 8 mps 753 mmHg 89%
    07:00 -6°C° 0.3 mm 8 mps 753 mmHg 90%
    08:00 -6°C° 0.3 mm 8 mps 752 mmHg 90%
    09:00 -6°C° 0.3 mm 9 mps 752 mmHg 89%
    10:00 -6°C° 0.3 mm 9 mps 752 mmHg 89%
    11:00 -6°C° 0.3 mm 9 mps 752 mmHg 89%
    12:00 -5°C° 0.3 mm 9 mps 752 mmHg 88%
    13:00 -5°C° 0.3 mm 9 mps 752 mmHg 88%
    14:00 -6°C° 0.5 mm 9 mps 752 mmHg 89%
    15:00 -6°C° 0.5 mm 9 mps 752 mmHg 90%
    16:00 -6°C° 0.5 mm 9 mps 751 mmHg 91%
    17:00 -6°C° 0.3 mm 9 mps 751 mmHg 90%
    18:00 -6°C° 0.3 mm 9 mps 751 mmHg 89%
    19:00 -6°C° 0.3 mm 9 mps 751 mmHg 88%
    20:00 -7°C° 0.1 mm 8 mps 751 mmHg 88%
    21:00 -7°C° 0.1 mm 8 mps 751 mmHg 88%
    22:00 -7°C° 0.1 mm 8 mps 751 mmHg 87%
    23:00 -8°C° 0 mm 8 mps 751 mmHg 88%

    15 December, Saturday

    Time Temperature Precipitation Wind Pressure Humidity
    00:00 -8°C° 0 mm 8 mps 751 mmHg 88%
    01:00 -8°C° 0 mm 7 mps 751 mmHg 89%
    02:00 -8°C° 0.1 mm 7 mps 751 mmHg 89%
    03:00 -8°C° 0.1 mm 7 mps 751 mmHg 89%
    04:00 -8°C° 0.1 mm 7 mps 751 mmHg 90%
    05:00 -9°C° 0.1 mm 6 mps 751 mmHg 90%
    06:00 -9°C° 0.1 mm 6 mps 751 mmHg 90%
    07:00 -9°C° 0.1 mm 6 mps 751 mmHg 91%
    08:00 -9°C° 0.1 mm 6 mps 751 mmHg 91%
    09:00 -9°C° 0.1 mm 6 mps 752 mmHg 91%
    10:00 -8°C° 0.1 mm 5 mps 752 mmHg 91%
    11:00 -8°C° 0 mm 5 mps 752 mmHg 91%
    12:00 -8°C° 0 mm 5 mps 752 mmHg 91%
    13:00 -8°C° 0 mm 5 mps 752 mmHg 91%
    14:00 -8°C° 0 mm 4 mps 753 mmHg 92%
    15:00 -8°C° 0 mm 4 mps 753 mmHg 92%
    16:00 -8°C° 0 mm 4 mps 753 mmHg 92%
    17:00 -8°C° 0 mm 3 mps 754 mmHg 93%
    18:00 -9°C° 0 mm 3 mps 754 mmHg 93%
    19:00 -9°C° 0 mm 3 mps 754 mmHg 93%
    20:00 -9°C° 0 mm 2 mps 755 mmHg 94%
    21:00 -9°C° 0 mm 2 mps 755 mmHg 94%
    22:00 -10°C° 0 mm 2 mps 755 mmHg 94%
    23:00 -10°C° 0 mm 2 mps 755 mmHg 94%

    16 December, Sunday

    Time Temperature Precipitation Wind Pressure Humidity
    00:00 -13°C° 0 mm 3 mps 755 mmHg 94%
    01:00 -13°C° 0 mm 3 mps 756 mmHg 95%
    02:00 -14°C° 0 mm 3 mps 756 mmHg 93%
    03:00 -14°C° 0 mm 3 mps 756 mmHg 92%
    04:00 -15°C° 0 mm 3 mps 756 mmHg 91%
    05:00 -15°C° 0 mm 3 mps 757 mmHg 90%
    06:00 -15°C° 0 mm 3 mps 757 mmHg 90%
    07:00 -17°C° 0 mm 4 mps 757 mmHg 90%
    08:00 -16°C° 0 mm 3 mps 758 mmHg 91%
    09:00 -16°C° 0 mm 3 mps 758 mmHg 93%
    10:00 -16°C° 0 mm 3 mps 759 mmHg 94%
    11:00 -15°C° 0 mm 3 mps 759 mmHg 94%
    12:00 -14°C° 0 mm 3 mps 759 mmHg 93%
    13:00 -13°C° 0 mm 3 mps 760 mmHg 93%
    14:00 -14°C° 0 mm 3 mps 760 mmHg 92%
    15:00 -13°C° 0 mm 2 mps 760 mmHg 91%
    16:00 -13°C° 0 mm 2 mps 761 mmHg 90%
    17:00 -13°C° 0 mm 2 mps 761 mmHg 90%
    18:00 -14°C° 0 mm 2 mps 762 mmHg 91%
    19:00 -14°C° 0 mm 2 mps 762 mmHg 91%
    20:00 -14°C° 0 mm 2 mps 762 mmHg 91%
    21:00 -14°C° 0 mm 2 mps 763 mmHg 91%
    22:00 -14°C° 0 mm 2 mps 763 mmHg 92%
    23:00 -12°C° 0 mm 1 mps 763 mmHg 92%
    Show more